1594029666,2020-07-06 12:01,429.00,-17
1594029727,2020-07-06 12:02,431.00,-18
1594029787,2020-07-06 12:03,432.00,-17
1594029847,2020-07-06 12:04,432.00,-17
1594029908,2020-07-06 12:05,431.00,-17
1594029968,2020-07-06 12:06,430.00,-17
1594030028,2020-07-06 12:07,431.00,-17
1594030089,2020-07-06 12:08,432.00,-17
1594030149,2020-07-06 12:09,431.00,-17
1594030209,2020-07-06 12:10,430.00,-18
1594030273,2020-07-06 12:11,431.00,-17
1594030333,2020-07-06 12:12,431.00,-18
1594030393,2020-07-06 12:13,432.00,-17
1594030453,2020-07-06 12:14,432.00,-17
1594030513,2020-07-06 12:15,430.00,-17
1594030573,2020-07-06 12:16,431.00,-17
1594030634,2020-07-06 12:17,432.00,-16
1594030694,2020-07-06 12:18,430.00,-17
1594030754,2020-07-06 12:19,431.00,-17
1594030817,2020-07-06 12:20,429.00,-17
1594030877,2020-07-06 12:21,430.00,-17
1594030937,2020-07-06 12:22,429.00,-17
1594030998,2020-07-06 12:23,430.00,-17
1594031059,2020-07-06 12:24,430.00,-17
1594031119,2020-07-06 12:25,428.00,-17
1594031179,2020-07-06 12:26,429.00,-18
1594031240,2020-07-06 12:27,429.00,-17
1594031399,2020-07-06 12:29,429.00,-19
1594031459,2020-07-06 12:30,430.00,-17
1594031582,2020-07-06 12:33,429.00,-16
1594031643,2020-07-06 12:34,429.00,-17
1594031703,2020-07-06 12:35,429.00,-17
1594031763,2020-07-06 12:36,428.00,-17
1594031824,2020-07-06 12:37,430.00,-17
1594031884,2020-07-06 12:38,430.00,-17
1594031945,2020-07-06 12:39,430.00,-17
1594032005,2020-07-06 12:40,429.00,-17
1594032065,2020-07-06 12:41,429.00,-18
1594032126,2020-07-06 12:42,428.00,-17
1594032186,2020-07-06 12:43,429.00,-19
1594032246,2020-07-06 12:44,428.00,-19
1594032307,2020-07-06 12:45,429.00,-19
1594032367,2020-07-06 12:46,429.00,-18
1594032427,2020-07-06 12:47,428.00,-18
1594032487,2020-07-06 12:48,429.00,-18
1594032548,2020-07-06 12:49,426.00,-17
1594032608,2020-07-06 12:50,429.00,-17
1594064312,2020-07-06 21:38,409.00,-15
1594064372,2020-07-06 21:39,408.00,-18
1594064432,2020-07-06 21:40,410.00,-16
1594064492,2020-07-06 21:41,408.00,-15
1594064552,2020-07-06 21:42,408.00,-16
1594064615,2020-07-06 21:43,411.00,-16
1594064675,2020-07-06 21:44,409.00,-16
1594064739,2020-07-06 21:45,409.00,-16
1594064799,2020-07-06 21:46,410.00,-16
1594064860,2020-07-06 21:47,409.00,-16
1594064922,2020-07-06 21:48,411.00,-16
1594064983,2020-07-06 21:49,408.00,-15
1594065110,2020-07-06 21:51,409.00,-14
1594065179,2020-07-06 21:52,409.00,-16
1594065234,2020-07-06 21:53,408.00,-16
1594065294,2020-07-06 21:54,411.00,-15
1594065355,2020-07-06 21:55,409.00,-15
1594065415,2020-07-06 21:56,411.00,-16
1594065475,2020-07-06 21:57,410.00,-16
1594065539,2020-07-06 21:58,410.00,-16
1594065599,2020-07-06 21:59,411.00,-16
1594065659,2020-07-06 22:00,411.00,-16
1594065720,2020-07-06 22:02,410.00,-16
1594065780,2020-07-06 22:03,411.00,-16
1594065840,2020-07-06 22:04,411.00,-16
1594065900,2020-07-06 22:05,410.00,-16
1594065961,2020-07-06 22:06,410.00,-16
1594066022,2020-07-06 22:07,411.00,-15
1594066083,2020-07-06 22:08,410.00,-15
1594066143,2020-07-06 22:09,410.00,-16
1594066203,2020-07-06 22:10,410.00,-16
1594066264,2020-07-06 22:11,410.00,-16
1594066324,2020-07-06 22:12,412.00,-16
1594066384,2020-07-06 22:13,410.00,-16
1594066448,2020-07-06 22:14,411.00,-16
1594066508,2020-07-06 22:15,412.00,-17
1594066568,2020-07-06 22:16,412.00,-17
1594066629,2020-07-06 22:17,411.00,-16
1594066689,2020-07-06 22:18,411.00,-17
1594066749,2020-07-06 22:19,408.00,-16
1594066812,2020-07-06 22:20,411.00,-17
1594066873,2020-07-06 22:21,411.00,-17
1594066997,2020-07-06 22:23,412.00,-16
1594067060,2020-07-06 22:24,412.00,-16
1594067120,2020-07-06 22:25,410.00,-16
1594067299,2020-07-06 22:28,411.00,-17
1594067359,2020-07-06 22:29,411.00,-16
1594067419,2020-07-06 22:30,408.00,-15
1594067479,2020-07-06 22:31,410.00,-15
1594067540,2020-07-06 22:32,412.00,-16
1594067600,2020-07-06 22:33,412.00,-16
1594067660,2020-07-06 22:34,412.00,-15
1594067720,2020-07-06 22:35,409.00,-16
1594067780,2020-07-06 22:36,409.00,-17
1594067840,2020-07-06 22:37,412.00,-16
1594067900,2020-07-06 22:38,410.00,-16
1594067960,2020-07-06 22:39,411.00,-16
1594068021,2020-07-06 22:40,412.00,-17
1594068081,2020-07-06 22:41,411.00,-21
1594068141,2020-07-06 22:42,410.00,-28
1594068201,2020-07-06 22:43,412.00,-18
1594068261,2020-07-06 22:44,412.00,-16
1594068321,2020-07-06 22:45,411.00,-17
1594068381,2020-07-06 22:46,411.00,-16
1594068442,2020-07-06 22:47,411.00,-16
1594068502,2020-07-06 22:48,412.00,-16
1594068562,2020-07-06 22:49,411.00,-17
1594068622,2020-07-06 22:50,411.00,-16
1594068682,2020-07-06 22:51,413.00,-16
1594068742,2020-07-06 22:52,412.00,-17
1594068802,2020-07-06 22:53,411.00,-18
1594068863,2020-07-06 22:54,412.00,-16
1594068923,2020-07-06 22:55,414.00,-17
1594068983,2020-07-06 22:56,411.00,-16
1594069044,2020-07-06 22:57,410.00,-16
1594069104,2020-07-06 22:58,412.00,-16
1594069164,2020-07-06 22:59,413.00,-16
1594069224,2020-07-06 23:00,413.00,-16
1594069285,2020-07-06 23:01,414.00,-16
1594069345,2020-07-06 23:02,412.00,-18
1594069405,2020-07-06 23:03,413.00,-16
1594069466,2020-07-06 23:04,413.00,-18
1594069526,2020-07-06 23:05,411.00,-16
1594069586,2020-07-06 23:06,412.00,-17
1594069647,2020-07-06 23:07,411.00,-17
1594069710,2020-07-06 23:08,411.00,-16
1594069770,2020-07-06 23:09,413.00,-16
1594069830,2020-07-06 23:10,414.00,-16
1594069890,2020-07-06 23:11,410.00,-16
1594069950,2020-07-06 23:12,412.00,-16
1594070010,2020-07-06 23:13,413.00,-16
1594070070,2020-07-06 23:14,413.00,-16
1594070130,2020-07-06 23:15,414.00,-16
1594070192,2020-07-06 23:16,412.00,-17
1594070252,2020-07-06 23:17,413.00,-16
1594070312,2020-07-06 23:18,413.00,-16
1594070372,2020-07-06 23:19,412.00,-16
1594070432,2020-07-06 23:20,414.00,-15
1594070492,2020-07-06 23:21,412.00,-18
1594070552,2020-07-06 23:22,412.00,-16
1594070613,2020-07-06 23:23,412.00,-14
1594070675,2020-07-06 23:24,413.00,-16
1594070735,2020-07-06 23:25,412.00,-16
1594070796,2020-07-06 23:26,412.00,-15
1594070856,2020-07-06 23:27,412.00,-16
1594070916,2020-07-06 23:28,412.00,-16
1594070976,2020-07-06 23:29,414.00,-16
1594071036,2020-07-06 23:30,411.00,-14
1594071096,2020-07-06 23:31,413.00,-18
1594071157,2020-07-06 23:32,413.00,-16
1594071217,2020-07-06 23:33,415.00,-16
1594071277,2020-07-06 23:34,411.00,-15
1594071340,2020-07-06 23:35,411.00,-15
1594071400,2020-07-06 23:36,413.00,-14
1594071461,2020-07-06 23:37,413.00,-16
1594071524,2020-07-06 23:38,412.00,-16
1594071584,2020-07-06 23:39,411.00,-15
1594071644,2020-07-06 23:40,415.00,-18
1594071704,2020-07-06 23:41,412.00,-16
1594071764,2020-07-06 23:42,412.00,-16
1594071824,2020-07-06 23:43,413.00,-16
1594071885,2020-07-06 23:44,410.00,-16
1594071945,2020-07-06 23:45,414.00,-15
1594072005,2020-07-06 23:46,412.00,-17
1594072065,2020-07-06 23:47,411.00,-15
1594072125,2020-07-06 23:48,411.00,-15
1594072185,2020-07-06 23:49,412.00,-16
1594072245,2020-07-06 23:50,412.00,-16
1594072306,2020-07-06 23:51,414.00,-16
1594072366,2020-07-06 23:52,412.00,-16
1594072426,2020-07-06 23:53,412.00,-16
1594072486,2020-07-06 23:54,413.00,-17
1594072546,2020-07-06 23:55,413.00,-15
1594072606,2020-07-06 23:56,413.00,-16
1594072666,2020-07-06 23:57,412.00,-17
